Tracking 22879 objects as of 21-Apr-2021
HD Live streaming from Space Station
objects crossing your sky now

COSMOS 1561

Track COSMOS 1561 now!
10-day predictions
COSMOS 1561 is classified as:


NORAD ID: 15000
Int'l Code: 1984-052C
Perigee: 1,468.1 km
Apogee: 1,492.3 km
Inclination: 74.0 °
Period: 115.4 minutes
Semi major axis: 7851 km
RCS: 0.6982 m2 (medium)
Launch date: May 28, 1984
Source: Commonwealth of Independent States (former USSR) (CIS)
Launch site: PLESETSK MISSILE AND SPACE COMPLEX (PKMTR)
aabbcc
Your satellite tracking list
Your tracking list is empty




NASA's NSSDC Master Catalog

Two Line Element Set (TLE):
1 15000U 84052C   21110.87306564 -.00000020  00000-0 -27090-4 0  9995
2 15000  74.0157   6.8692 0015406 191.5100 238.5373 12.47953995680780
Source of the keplerian elements: AFSPC